IUS DEB, 43367

Orbit data source: Space-Track

IUS DEB, 43367 is space debris originally from a launch on Fri, 23 Jul 1999 UTC launched from the Air Force Eastern Test Range (AFETR). Debris objects in space refer to the collection of defunct objects orbiting the Earth. Examples of debris include non-operational satellites, rocket bodies, and fragments generated from explosions, collisions, or faulty payload assembly.

Loading next visibility...
Identifier
43367, 1999-040Q
Orbit
Active
Country
Flag of USUS
Related business
Manufacturer
Boeing/Kent
Mission
Spacecraft
Bus & Motor
Unknown
Mass
Unknown
Launch date (UTC)
1999-07-23 (27 years ago)
Launch vehicle
Unknown
Launch site
Air Force Eastern Test Range (AFETR)
Object type
Payload
Rocket body
Debris
Shape & HBR
Unknown shape, 0.1 m
Radar Cross Section
Medium (>0.1 m² and <1 m²)

Expand to show TLE details & history
Last TLE update: 1 week ago

TLE from 1 week ago
0 IUS DEB
1 43367U 99040Q   26164.65301333 -.00000057  00000-0 -55662-3 0  9999
2 43367  28.1255 289.0072 3769718 329.6537  13.0688  7.01198043120969
Epoch: 2026-06-13T15:40Z
TLE epoch observation values (Epoch: 2026-06-13T15:40:20.351Z)
Latitude
-0.00003°
Longitude
151.95732°
Altitude
1,085.931 km
Speed
8.5 km/s
True Right ascension
19h 16m 01s
True Declination
0° 00' 00"
Sunlit
Object was in full shadow at epoch
Visualization orbit readout
Latitude
Unknown
Longitude
Unknown
Altitude
Unknown
Speed
Unknown
Apparent Right ascension
Unknown
Apparent Declination
Unknown
Sunlit
N/A
Visualization observer readout
Local Sidereal Time
21:34:46
Azimuth
Unknown
Elevation
Unknown
Doppler factor
Unknown
Orbital elements
Apogee altitude
9,503.212 km
Perigee altitude
807.579 km
Semi-major axis
11,533.533 km
Eccentricity
0.37697
Inclination
28.1255°
RAAN
289.0072°
Arg. of periapsis
329.6537°
True anomaly
30.38807°
Mean anomaly
13.0688°
Eccentric anomaly
20.70535°
Mean motion
1.75226 °/min
Orbital period
205.45 mins
BSTAR
-0.00055662
Loading maneuver chart data...
Computing Atmospheric mass density...
Loading historical data...
Loading historical data...
Loading historical data...
Loading historical data...
Loading historical data...
Loading historical data...
Loading historical data...

Documentation

Showing up to 5 results
|